Weather History for Hagerstown, MD

Change the Weather History Date:

Wednesday, January 29, 2014

  Actual Average Record
Temperature  
Mean Temperature 12 °F -  
Max Temperature 20 °F 36 °F 70 °F (2002)
Min Temperature 4 °F 22 °F 4 °F (2014)
Degree Days  
Heating Degree Days 53    
Month to date heating degree days 1024  
Moisture  
Dew Point -7 °F    
Average Humidity 45    
Maximum Humidity 58    
Minimum Humidity 31    
Precipitation  
Precipitation 0.00 in - - ()
Month to date precipitation 1.27  
Year to date precipitation 1.27  
Sea Level Pressure  
Sea Level Pressure 30.31 in    
Wind  
Wind Speed 9 mph (West)    
Max Wind Speed 22 mph    
Max Gust Speed 28 mph    
Visibility 10 miles    
Events      
Averages and records for this station are not official NWS values.
T = Trace of Precipitation, MM = Missing Value Source: NWS Daily Summary

Daily Weather History Graph

Daily Weather History Graph

Search for Another Location

Airport:

Trip Planner

Search our weather history database for the weather conditions in past years. The results will help you decide how hot, cold, wet, or windy it might be!

Date:

Astronomy

Jan. 29, 2014 Rise Set
Actual Time 7:21 AM EST 5:27 PM EST
Civil Twilight 6:52 AM EST 5:55 PM EST
Nautical Twilight 6:20 AM EST 6:28 PM EST
Astronomical Twilight 5:48 AM EST 7:00 PM EST
Moon 5:56 AM EST (1/29) 4:24 PM EST (1/29)
Length of Visible Light 11h 03m
Length of Day
10h 05m
Waning Crescent, 2% of the Moon is Illuminated
Jan 29
Waning Crescent
Jan 30
New
Feb 6
First Quarter
Feb 14
Full
Feb 22
Last Quarter

Hourly Weather History & Observations

Time (EST) Temp. Windchill Dew Point Humidity Pressure Visibility Wind Dir Wind Speed Gust Speed Precip Events Conditions
12:53 AM 10.9 °F 4.7 °F -4.0 °F 51% 30.29 in 10.0 mi West 3.5 mph - N/A   Overcast
1:53 AM 10.9 °F 2.9 °F -4.0 °F 51% 30.27 in 10.0 mi West 4.6 mph - N/A   Partly Cloudy
2:53 AM 9.0 °F -0.9 °F -4.0 °F 56% 30.27 in 10.0 mi NW 5.8 mph - N/A   Mostly Cloudy
3:53 AM 8.1 °F -2.0 °F -6.0 °F 53% 30.26 in 10.0 mi NW 5.8 mph - N/A   Clear
4:53 AM 6.1 °F -7.8 °F -9.9 °F 48% 30.27 in 10.0 mi WNW 9.2 mph - N/A   Clear
5:53 AM 6.1 °F -2.8 °F -11.0 °F 45% 30.29 in 10.0 mi NW 4.6 mph - N/A   Clear
6:53 AM 5.0 °F -5.6 °F -11.9 °F 46% 30.31 in 10.0 mi WNW 5.8 mph - N/A   Clear
7:53 AM 6.1 °F -14.3 °F -11.9 °F 44% 30.31 in 10.0 mi WNW 20.7 mph - N/A   Clear
8:53 AM 7.0 °F -6.6 °F -11.0 °F 44% 30.34 in 10.0 mi West 9.2 mph - N/A   Clear
9:53 AM 9.0 °F -6.6 °F -9.0 °F 44% 30.35 in 10.0 mi WNW 12.7 mph - N/A   Clear
10:53 AM 10.9 °F -1.8 °F -7.1 °F 44% 30.34 in 10.0 mi WNW 9.2 mph - N/A   Clear
11:53 AM 12.9 °F -0.9 °F -6.0 °F 43% 30.32 in 10.0 mi West 11.5 mph - N/A   Clear
12:53 PM 15.1 °F 2.5 °F -6.0 °F 39% 30.30 in 10.0 mi West 10.4 mph - N/A   Clear
1:53 PM 19.0 °F 6.8 °F -8.0 °F 30% 30.27 in 10.0 mi West 11.5 mph - N/A   Clear
2:53 PM 19.9 °F 5.7 °F -7.1 °F 30% 30.27 in 10.0 mi West 16.1 mph - N/A   Clear
3:53 PM 19.9 °F 8.6 °F -5.1 °F 33% 30.26 in 10.0 mi West 10.4 mph - N/A   Clear
4:53 PM 19.0 °F 8.2 °F -4.0 °F 36% 30.28 in 10.0 mi West 9.2 mph - N/A   Clear
5:53 PM 18.0 °F 7.7 °F -6.0 °F 35% 30.31 in 10.0 mi WSW 8.1 mph - N/A   Clear
6:53 PM 17.1 °F 5.8 °F -6.0 °F 36% 30.33 in 10.0 mi West 9.2 mph - N/A   Clear
7:53 PM 16.0 °F 6.3 °F -5.1 °F 39% 30.36 in 10.0 mi West 6.9 mph - N/A   Clear
8:53 PM 15.1 °F 7.7 °F -5.1 °F 41% 30.38 in 10.0 mi SSW 4.6 mph - N/A   Clear
9:53 PM 15.1 °F 9.4 °F -5.1 °F 41% 30.38 in 10.0 mi SSW 3.5 mph - N/A   Clear
10:53 PM 15.1 °F 7.7 °F -5.1 °F 41% 30.39 in 10.0 mi WSW 4.6 mph - N/A   Clear
11:53 PM 10.9 °F 1.4 °F -5.1 °F 49% 30.39 in 10.0 mi SSW 5.8 mph - N/A   Clear